GW1008 Weather Reports


Display with metric or nautical units.
time (UTC)temp
F
wind
direction
speed
MPH
gust
MPH
rain 1hr
in
rain 24hr
in
rain mn
in
humidity
%
barometer
mb
20260831012018 56 0 0.0 0.0 0.00 0.08 0.01 91 1003.5
20260831011537 56 0 0.0 0.0 0.00 0.08 0.01 91 1003.5
20260831011019 56 0 0.0 0.0 0.00 0.08 0.01 91 1003.5
20260831010519 56 0 0.0 0.0 0.00 0.08 0.01 91 1003.6
20260831010035 56 0 0.0 0.0 0.00 0.08 0.01 91 1003.5
20260831005516 56 0 0.0 0.0 0.00 0.08 0.01 91 1003.6
20260831005016 56 0 0.0 0.0 0.00 0.08 0.01 91 1003.5
20260831004536 56 0 0.0 0.0 0.00 0.08 0.01 91 1003.6
20260831004018 56 0 0.0 0.0 0.00 0.08 0.01 91 1003.6
20260831003519 56 0 0.0 0.0 0.00 0.08 0.01 91 1003.6
20260831003032 56 0 0.0 0.0 0.00 0.08 0.01 91 1003.6
20260831002515 56 0 0.0 0.0 0.00 0.08 0.01 91 1003.7
20260831002016 56 0 0.0 0.0 0.00 0.08 0.01 91 1003.6
20260831001534 56 0 0.0 0.0 0.01 0.08 0.01 91 1003.7
20260831001017 56 0 0.0 0.0 0.01 0.08 0.01 90 1003.6
20260831000518 56 0 0.0 0.0 0.01 0.08 0.01 90 1003.6
20260831000048 56 0 0.0 0.0 0.01 0.08 0.01 90 1003.5
20260830235518 56 0 0.0 0.0 0.01 0.08 0.01 90 1003.6
20260830235018 56 0 0.0 0.0 0.01 0.08 0.01 90 1003.5
20260830234531 56 0 0.0 0.0 0.01 0.08 0.01 90 1003.6
20260830234021 56 0 0.0 0.0 0.01 0.08 0.01 90 1003.5
20260830233519 56 0 0.0 0.0 0.01 0.08 0.01 90 1003.6
20260830233051 56 0 0.0 0.0 0.01 0.08 0.01 90 1003.5
20260830232518 56 0 0.0 0.0 0.01 0.08 0.01 90 1003.5
20260830232019 56 0 0.0 0.0 0.01 0.08 0.01 90 1003.6
20260830231533 56 0 0.0 0.0 0.00 0.07 0.00 90 1003.6
20260830231015 56 0 0.0 0.0 0.00 0.07 0.00 90 1003.7
20260830230515 56 0 0.0 0.0 0.00 0.07 0.00 90 1003.7
20260830230034 56 0 0.0 0.0 0.00 0.07 0.00 90 1003.7
20260830225517 56 0 0.0 0.0 0.00 0.07 0.07 90 1003.6
20260830225026 56 0 0.0 0.0 0.00 0.07 0.07 90 1003.6
20260830224532 56 0 0.0 0.0 0.00 0.07 0.07 90 1003.6
20260830224019 56 0 0.0 0.0 0.00 0.07 0.07 90 1003.7
20260830223519 56 0 0.0 0.0 0.00 0.07 0.07 90 1003.7
20260830223034 56 0 0.0 0.0 0.00 0.07 0.07 90 1003.8
20260830222516 56 0 0.0 0.0 0.00 0.07 0.07 90 1003.8
20260830222019 56 0 0.0 0.0 0.00 0.07 0.07 90 1003.8
20260830221532 56 0 0.0 0.0 0.00 0.07 0.07 90 1003.9
20260830221018 56 0 0.0 0.0 0.00 0.07 0.07 90 1003.9
20260830220519 56 0 0.0 0.0 0.00 0.07 0.07 90 1003.8
20260830220054 56 0 0.0 0.0 0.00 0.07 0.07 90 1003.9
20260830215518 56 0 0.0 0.0 0.00 0.07 0.07 90 1004.0
20260830215016 56 0 0.0 0.0 0.00 0.07 0.07 90 1003.9
20260830214534 56 0 0.0 0.0 0.00 0.07 0.07 90 1004.0
20260830214016 56 0 0.0 0.0 0.00 0.07 0.07 90 1004.0
20260830213518 56 0 0.0 0.0 0.00 0.07 0.07 90 1003.9
20260830213034 56 0 0.0 0.0 0.00 0.07 0.07 90 1004.1
20260830212518 56 0 0.0 0.0 0.00 0.07 0.07 90 1004.0
20260830212018 56 0 0.0 0.0 0.00 0.07 0.07 90 1004.0
20260830211534 56 0 0.0 0.0 0.00 0.07 0.07 90 1004.0
20260830211018 56 0 0.0 0.0 0.00 0.07 0.07 90 1004.0
20260830210516 56 0 0.0 0.0 0.00 0.07 0.07 90 1004.2
20260830210034 56 0 0.0 0.0 0.00 0.07 0.07 90 1004.2
20260830205520 56 0 0.0 0.0 0.00 0.07 0.07 90 1004.2
20260830205016 56 0 0.0 0.0 0.00 0.07 0.07 90 1004.0
20260830204548 56 0 0.0 0.0 0.00 0.07 0.07 90 1004.0
20260830204018 56 0 0.0 0.0 0.00 0.07 0.07 90 1004.0
20260830203516 56 0 0.0 0.0 0.00 0.07 0.07 90 1004.2
20260830203032 56 0 0.0 0.0 0.00 0.07 0.07 89 1004.1
20260830202518 56 0 0.0 0.0 0.00 0.07 0.07 89 1004.2
20260830202018 56 0 0.0 0.0 0.00 0.07 0.07 89 1004.2
20260830201531 56 0 0.0 0.0 0.00 0.07 0.07 89 1004.2
20260830201019 56 0 0.0 0.0 0.00 0.07 0.07 89 1004.3
20260830200517 56 0 0.0 0.0 0.00 0.07 0.07 89 1004.4
20260830200037 56 0 0.0 0.0 0.00 0.07 0.07 89 1004.4
20260830195517 56 0 0.0 0.0 0.00 0.07 0.07 89 1004.4
20260830195017 56 0 0.0 0.0 0.00 0.07 0.07 89 1004.4
20260830194534 56 0 0.0 0.0 0.01 0.07 0.07 89 1004.3
20260830194014 56 0 0.0 1.0 0.01 0.07 0.07 89 1004.3
20260830193515 56 0 0.0 1.0 0.01 0.07 0.07 89 1004.3
20260830193033 56 0 0.0 0.0 0.01 0.07 0.07 89 1004.3
20260830192516 56 0 0.0 0.0 0.01 0.07 0.07 89 1004.3
20260830192018 56 0 0.0 0.0 0.01 0.07 0.07 89 1004.3
20260830191612 56 0 0.0 0.0 0.01 0.07 0.07 89 1004.3
20260830191018 56 0 0.0 0.0 0.02 0.07 0.07 89 1004.3
20260830190517 56 0 0.0 0.0 0.02 0.07 0.07 88 1004.3
20260830190037 56 0 0.0 0.0 0.03 0.07 0.07 88 1004.4
20260830185519 56 0 0.0 0.0 0.06 0.07 0.07 88 1004.3
20260830185018 56 0 0.0 0.0 0.05 0.06 0.06 88 1004.3
20260830184536 56 0 0.0 0.0 0.05 0.06 0.06 88 1004.3
20260830184019 56 0 0.0 0.0 0.06 0.06 0.06 88 1004.4
20260830183517 56 0 0.0 0.0 0.06 0.06 0.06 88 1004.4
20260830183034 56 0 0.0 0.0 0.06 0.06 0.06 88 1004.4
20260830182519 56 0 0.0 0.0 0.06 0.06 0.06 88 1004.5
20260830182017 56 0 0.0 0.0 0.06 0.06 0.06 88 1004.6
20260830181533 56 0 0.0 0.0 0.06 0.06 0.06 88 1004.5
20260830181018 56 0 0.0 1.0 0.05 0.05 0.05 87 1004.6
20260830180518 56 0 0.0 1.0 0.05 0.05 0.05 87 1004.7
20260830180038 57 0 0.0 0.0 0.04 0.04 0.04 87 1004.6
20260830175514 57 0 0.0 0.0 0.01 0.01 0.01 87 1004.6
20260830175018 57 0 0.0 0.0 0.01 0.01 0.01 87 1004.7
20260830174536 57 0 0.0 0.0 0.01 0.01 0.01 87 1004.7
20260830174022 57 0 0.0 0.0 0.00 0.00 0.00 87 1004.7
20260830173521 57 0 0.0 0.0 0.00 0.00 0.00 87 1004.7
20260830173032 57 0 0.0 0.0 0.00 0.00 0.00 87 1004.6
20260830172522 57 0 0.0 3.0 0.00 0.00 0.00 87 1004.6
20260830172018 57 0 0.0 3.0 0.00 0.00 0.00 87 1004.6
20260830171537 57 98 0.0 4.0 0.00 0.00 0.00 87 1004.7
20260830171016 57 0 0.0 4.0 0.00 0.00 0.00 87 1004.7
20260830170519 57 98 0.0 4.0 0.00 0.00 0.00 87 1004.7
20260830170034 57 0 0.0 0.0 0.00 0.00 0.00 87 1004.8
20260830165517 57 0 0.0 0.0 0.00 0.00 0.00 87 1004.7
20260830165022 57 0 0.0 0.0 0.00 0.00 0.00 87 1004.8
20260830164532 57 0 0.0 0.0 0.00 0.00 0.00 87 1004.8
20260830164017 57 0 0.0 0.0 0.00 0.00 0.00 87 1004.8
20260830163516 57 0 0.0 0.0 0.00 0.00 0.00 87 1004.8
20260830163040 57 0 0.0 4.0 0.00 0.00 0.00 87 1004.8
20260830162518 57 0 0.0 4.0 0.00 0.00 0.00 87 1004.8
20260830162018 57 0 0.0 3.0 0.00 0.00 0.00 86 1004.8
20260830161534 57 0 0.0 2.0 0.00 0.00 0.00 86 1004.8
20260830161024 57 95 0.0 2.0 0.00 0.00 0.00 86 1004.8
20260830160515 57 0 0.0 4.0 0.00 0.00 0.00 86 1004.8
20260830160039 57 0 1.0 4.0 0.00 0.00 0.00 86 1004.8
20260830155517 57 0 0.0 4.0 0.00 0.00 0.00 86 1004.8
20260830155018 57 0 0.0 4.0 0.00 0.00 0.00 85 1004.7
20260830154536 57 0 0.0 7.0 0.00 0.00 0.00 85 1004.8
20260830154017 57 92 1.0 7.0 0.00 0.00 0.00 85 1004.8
20260830153519 57 0 0.0 6.0 0.00 0.00 0.00 85 1004.8
20260830153034 57 0 0.0 6.0 0.00 0.00 0.00 85 1004.9
20260830152518 57 150 1.0 5.0 0.00 0.00 0.00 85 1004.9
20260830152018 58 146 0.0 1.0 0.00 0.00 0.00 85 1004.8
20260830151533 58 0 0.0 1.0 0.00 0.00 0.00 85 1004.8
20260830151017 58 0 0.0 0.0 0.00 0.00 0.00 85 1004.9
20260830150516 58 0 0.0 0.0 0.00 0.00 0.00 85 1004.9
20260830150041 58 0 0.0 0.0 0.00 0.00 0.00 85 1004.9
20260830145520 58 0 0.0 0.0 0.00 0.00 0.00 85 1004.9
20260830145016 58 0 0.0 0.0 0.00 0.00 0.00 85 1005.0
20260830144543 58 0 0.0 0.0 0.00 0.00 0.00 85 1004.9
20260830144018 58 0 0.0 0.0 0.00 0.00 0.00 85 1005.0
20260830143518 58 0 0.0 5.0 0.00 0.00 0.00 84 1005.1
20260830143034 58 0 0.0 5.0 0.00 0.00 0.00 84 1005.1
20260830142518 58 144 0.0 4.0 0.00 0.00 0.00 84 1005.1
20260830142016 58 0 0.0 2.0 0.00 0.00 0.00 84 1005.1
20260830141530 58 0 0.0 4.0 0.00 0.00 0.00 84 1005.0
20260830141019 58 0 0.0 8.0 0.00 0.00 0.00 84 1005.2
20260830140518 58 0 2.0 8.0 0.00 0.00 0.00 83 1005.3
20260830140034 58 0 0.0 5.0 0.00 0.00 0.00 84 1005.2
20260830135518 58 0 0.0 6.0 0.00 0.00 0.00 83 1005.2
20260830135018 58 0 0.0 6.0 0.00 0.00 0.00 83 1005.3
20260830134535 58 0 1.0 8.0 0.00 0.00 0.00 83 1005.3
20260830134016 58 0 0.0 8.0 0.00 0.00 0.00 83 1005.2
20260830133517 58 143 0.0 5.0 0.00 0.00 0.00 83 1005.3
20260830133033 58 0 0.0 8.0 0.00 0.00 0.00 83 1005.3
20260830132515 58 142 1.0 8.0 0.00 0.00 0.00 84 1005.4
20260830132017 58 143 2.0 8.0 0.00 0.00 0.00 83 1005.3
20260830131549 58 134 2.0 8.0 0.00 0.00 0.00 83 1005.4
20260830131014 58 0 0.0 4.0 0.00 0.00 0.00 83 1005.4
20260830130517 58 0 0.0 4.0 0.00 0.00 0.00 83 1005.4
20260830130045 58 0 0.0 6.0 0.00 0.00 0.00 83 1005.4
20260830125516 58 108 0.0 6.0 0.00 0.00 0.00 83 1005.4
20260830125017 58 0 0.0 7.0 0.00 0.00 0.00 83 1005.5
20260830124534 58 0 0.0 9.0 0.00 0.00 0.00 82 1005.5
20260830124017 58 147 2.0 9.0 0.00 0.00 0.00 81 1005.5
20260830123518 59 0 0.0 8.0 0.00 0.00 0.00 81 1005.5
20260830123034 59 0 0.0 6.0 0.00 0.00 0.00 81 1005.5
20260830122521 59 0 0.0 7.0 0.00 0.00 0.00 80 1005.6
20260830122020 59 0 0.0 7.0 0.00 0.00 0.00 80 1005.5
20260830121535 59 145 1.0 7.0 0.00 0.00 0.00 80 1005.4
20260830121018 59 122 1.0 7.0 0.00 0.00 0.00 80 1005.4
20260830120519 59 0 1.0 7.0 0.00 0.00 0.00 80 1005.4
20260830120045 59 0 1.0 8.0 0.00 0.00 0.00 80 1005.4
20260830115518 59 139 2.0 8.0 0.00 0.00 0.00 80 1005.5
20260830115018 59 125 1.0 5.0 0.00 0.00 0.00 80 1005.4
20260830114535 59 132 2.0 8.0 0.00 0.00 0.00 80 1005.4
20260830114016 59 0 1.0 8.0 0.00 0.00 0.00 80 1005.5
20260830113518 59 0 0.0 8.0 0.00 0.00 0.00 80 1005.5
20260830113031 59 0 0.0 8.0 0.00 0.00 0.00 80 1005.5
20260830112516 59 141 0.0 4.0 0.00 0.00 0.00 79 1005.5
20260830112018 60 119 0.0 4.0 0.00 0.00 0.00 79 1005.5
20260830111534 59 0 0.0 0.0 0.00 0.00 0.00 80 1005.5
20260830111017 59 0 0.0 2.0 0.00 0.00 0.00 81 1005.4
20260830110518 59 0 0.0 2.0 0.00 0.00 0.00 81 1005.5
20260830110035 59 0 0.0 2.0 0.00 0.00 0.00 81 1005.5
20260830105517 59 0 0.0 0.0 0.00 0.00 0.00 81 1005.5
20260830105015 59 0 0.0 1.0 0.00 0.00 0.00 80 1005.6
20260830104533 59 0 0.0 1.0 0.00 0.00 0.00 80 1005.6
20260830104015 59 0 0.0 0.0 0.00 0.00 0.00 80 1005.5
20260830103516 59 0 0.0 0.0 0.00 0.00 0.00 80 1005.5
20260830103033 59 0 0.0 0.0 0.00 0.00 0.00 80 1005.5
20260830102518 58 0 0.0 0.0 0.00 0.00 0.00 80 1005.5
20260830102023 58 0 0.0 0.0 0.00 0.00 0.00 80 1005.5
20260830101532 58 0 0.0 2.0 0.00 0.00 0.00 81 1005.6
20260830101022 58 0 0.0 2.0 0.00 0.00 0.00 81 1005.5
20260830100518 58 0 0.0 0.0 0.00 0.00 0.00 82 1005.5
20260830100039 58 0 0.0 0.0 0.00 0.00 0.00 82 1005.6
20260830095518 58 0 0.0 1.0 0.00 0.00 0.00 83 1005.7
20260830095017 57 0 0.0 1.0 0.00 0.00 0.00 82 1005.8
20260830094538 57 0 0.0 2.0 0.00 0.00 0.00 83 1005.8
20260830094013 57 92 0.0 2.0 0.00 0.00 0.00 83 1005.8
20260830093516 57 0 0.0 2.0 0.00 0.00 0.00 83 1005.6
20260830093035 57 0 0.0 2.0 0.00 0.00 0.00 83 1005.8
20260830092518 57 0 0.0 3.0 0.00 0.00 0.00 83 1005.8
20260830092016 57 0 0.0 3.0 0.00 0.00 0.00 82 1005.8
20260830091535 57 0 0.0 1.0 0.00 0.00 0.00 83 1005.7
20260830091018 57 0 0.0 1.0 0.00 0.00 0.00 83 1005.7
20260830090518 57 0 0.0 2.0 0.00 0.00 0.00 83 1005.8
20260830090035 57 0 0.0 2.0 0.00 0.00 0.00 83 1005.6
20260830085518 57 0 0.0 3.0 0.00 0.00 0.00 84 1005.7
20260830085021 57 0 0.0 3.0 0.00 0.00 0.00 84 1005.6
20260830084538 57 0 0.0 3.0 0.00 0.00 0.00 84 1005.7
20260830084019 57 0 0.0 0.0 0.00 0.00 0.00 84 1005.6
20260830083518 57 0 0.0 0.0 0.00 0.00 0.00 84 1005.6
20260830083032 57 0 0.0 0.0 0.00 0.00 0.00 84 1005.8
20260830082517 57 0 0.0 0.0 0.00 0.00 0.00 84 1005.8
20260830082018 56 0 0.0 0.0 0.00 0.00 0.00 84 1005.7
20260830081538 56 0 0.0 0.0 0.00 0.00 0.00 84 1005.6
20260830081016 56 0 0.0 0.0 0.00 0.00 0.00 85 1005.6
20260830080518 56 0 0.0 0.0 0.00 0.00 0.00 85 1005.5
20260830080039 56 0 0.0 0.0 0.00 0.00 0.00 85 1005.5
20260830075519 56 0 0.0 0.0 0.00 0.00 0.00 85 1005.5
20260830075017 56 0 0.0 0.0 0.00 0.00 0.00 85 1005.6
20260830074534 56 0 0.0 0.0 0.00 0.00 0.00 86 1005.5
20260830074015 56 0 0.0 0.0 0.00 0.00 0.00 86 1005.6
20260830073518 55 0 0.0 0.0 0.00 0.00 0.00 86 1005.6
20260830073033 55 0 0.0 0.0 0.00 0.00 0.00 87 1005.6
20260830072517 55 0 0.0 0.0 0.00 0.00 0.00 87 1005.5
20260830072020 55 0 0.0 0.0 0.00 0.00 0.00 88 1005.6
20260830071531 55 0 0.0 0.0 0.00 0.00 0.00 88 1005.5
20260830071016 55 0 0.0 0.0 0.00 0.00 0.00 88 1005.5
20260830070519 55 0 0.0 0.0 0.00 0.00 0.00 88 1005.4
20260830070052 55 0 0.0 0.0 0.00 0.00 0.00 88 1005.4
20260830065518 55 0 0.0 0.0 0.00 0.00 0.00 88 1005.5
20260830065018 55 0 0.0 0.0 0.00 0.00 0.00 88 1005.5
20260830064534 54 0 0.0 0.0 0.00 0.00 0.00 88 1005.4
20260830064018 54 0 0.0 0.0 0.00 0.00 0.00 88 1005.4
20260830063518 54 0 0.0 0.0 0.00 0.00 0.00 89 1005.4
20260830063036 54 0 0.0 0.0 0.00 0.00 0.00 88 1005.5
20260830062519 54 0 0.0 0.0 0.00 0.00 0.00 88 1005.4
20260830062020 54 0 0.0 0.0 0.00 0.00 0.00 88 1005.4
20260830061533 54 0 0.0 0.0 0.00 0.00 0.00 88 1005.4
20260830061016 54 0 0.0 0.0 0.00 0.00 0.00 88 1005.4
20260830060516 54 0 0.0 0.0 0.00 0.00 0.00 88 1005.4
20260830060046 54 0 0.0 0.0 0.00 0.00 0.00 88 1005.3
20260830055520 54 0 0.0 0.0 0.00 0.00 0.00 88 1005.4
20260830055019 54 0 0.0 0.0 0.00 0.00 0.00 88 1005.3
20260830054532 54 0 0.0 0.0 0.00 0.00 0.00 88 1005.3
20260830054017 54 0 0.0 0.0 0.00 0.00 0.00 88 1005.4
20260830053515 54 0 0.0 0.0 0.00 0.00 0.00 88 1005.3
20260830053034 54 0 0.0 0.0 0.00 0.00 0.00 88 1005.3
20260830052518 54 0 0.0 0.0 0.00 0.00 0.00 88 1005.2
20260830052016 54 0 0.0 0.0 0.00 0.00 0.00 88 1005.2
20260830051537 54 0 0.0 0.0 0.00 0.00 0.00 88 1005.2
20260830051017 54 0 0.0 0.0 0.00 0.00 0.00 88 1005.3
20260830050516 54 0 0.0 0.0 0.00 0.00 0.00 88 1005.2
20260830050036 54 0 0.0 0.0 0.00 0.00 0.00 88 1005.2
20260830045515 54 0 0.0 0.0 0.00 0.00 0.00 88 1005.1
20260830045015 54 0 0.0 0.0 0.00 0.00 0.00 88 1005.2
20260830044541 54 0 0.0 0.0 0.00 0.00 0.00 88 1005.2
20260830044019 54 0 0.0 0.0 0.00 0.00 0.00 88 1005.2
20260830043517 54 0 0.0 0.0 0.00 0.00 0.00 88 1005.2
20260830043034 54 0 0.0 0.0 0.00 0.00 0.00 88 1005.3
20260830042519 54 0 0.0 0.0 0.00 0.00 0.00 88 1005.2
20260830042019 54 0 0.0 0.0 0.00 0.00 0.00 88 1005.2
20260830041550 54 0 0.0 0.0 0.00 0.00 0.00 88 1005.2
20260830041020 54 0 0.0 0.0 0.00 0.00 0.00 88 1005.3
20260830040517 54 0 0.0 0.0 0.00 0.00 0.00 88 1005.3
20260830040039 54 0 0.0 0.0 0.00 0.00 0.00 88 1005.3
20260830035518 54 0 0.0 0.0 0.00 0.00 0.00 88 1005.3
20260830035018 54 0 0.0 0.0 0.00 0.00 0.00 87 1005.2
20260830034533 54 0 0.0 0.0 0.00 0.00 0.00 87 1005.2
20260830034018 54 0 0.0 0.0 0.00 0.00 0.00 88 1005.2
20260830033518 54 0 0.0 0.0 0.00 0.00 0.00 87 1005.2
20260830033039 54 0 0.0 0.0 0.00 0.00 0.00 88 1005.2
20260830032515 54 0 0.0 0.0 0.00 0.00 0.00 88 1005.2
20260830032016 54 0 0.0 0.0 0.00 0.00 0.00 88 1005.3
20260830031538 54 0 0.0 0.0 0.00 0.00 0.00 88 1005.4
20260830031019 54 0 0.0 0.0 0.00 0.00 0.00 88 1005.4
20260830030519 54 0 0.0 0.0 0.00 0.00 0.00 88 1005.4
20260830030040 54 0 0.0 0.0 0.00 0.00 0.00 88 1005.4
20260830025516 54 0 0.0 0.0 0.00 0.00 0.00 88 1005.4
20260830025018 54 0 0.0 0.0 0.00 0.00 0.00 88 1005.4
20260830024545 54 0 0.0 0.0 0.00 0.00 0.00 88 1005.4
20260830024016 54 0 0.0 0.0 0.00 0.00 0.00 87 1005.3
20260830023516 54 0 0.0 0.0 0.00 0.00 0.00 87 1005.2
20260830023033 54 0 0.0 0.0 0.00 0.00 0.00 87 1005.4
20260830022515 54 0 0.0 0.0 0.00 0.00 0.00 87 1005.4
20260830022020 54 0 0.0 0.0 0.00 0.00 0.00 87 1005.3
20260830021531 54 0 0.0 0.0 0.00 0.00 0.00 87 1005.3
20260830021017 54 0 0.0 0.0 0.00 0.00 0.00 88 1005.3
20260830020516 54 0 0.0 0.0 0.00 0.00 0.00 87 1005.2
20260830020038 54 0 0.0 0.0 0.00 0.00 0.00 87 1005.3
20260830015516 54 0 0.0 0.0 0.00 0.00 0.00 87 1005.4
20260830015018 54 0 0.0 0.0 0.00 0.00 0.00 87 1005.5
20260830014533 54 0 0.0 0.0 0.00 0.00 0.00 87 1005.4
20260830014018 54 0 0.0 0.0 0.00 0.00 0.00 87 1005.5
20260830013518 54 0 0.0 0.0 0.00 0.00 0.00 87 1005.5
20260830013035 54 0 0.0 0.0 0.00 0.00 0.00 87 1005.4
20260830012518 54 0 0.0 0.0 0.00 0.00 0.00 87 1005.4